[[{"header":{"parameterUnit":"m.s-1","parameterCategory":1,"la1":30.2991,"la2":30.254,"lo1":-89.0895,"lo2":-89.0444,"dy":0.0017,"dx":0.0017,"nx":28,"ny":28,"refTime":"2025-06-01T03:00:00:Z","depth":0,"parameterNumber":2,"parameterNumberName":"U-component_of_WINDS"},"data":[0,0,0,0,0,0,0,0,0,0,0,0,0,0,0,0,0,0,0,0,0,0,0,0,0,0,0,0,0,0,0,0,0,0,0,0,0,0,0,0,0,0,0,0,0,0,0,0,0,0,0,0,0,0,0,0,0,0,3.0761,3.0762,0,3.0887,3.0888,3.089,3.0873,3.0871,3.0869,3.0867,3.0996,3.1002,3.1007,0,0,0,0,0,0,0,0,0,0,0,0,0,3.0505,3.051,3.0761,3.0763,3.0764,3.0886,3.0888,3.089,3.0874,3.0871,3.0869,3.0866,3.0995,3.1001,3.1007,0,0,0,0,0,0,0,0,0,0,0,0,0,3.0622,3.0511,3.0761,3.0771,3.0773,3.0886,3.0888,3.089,3.0874,3.0871,3.0868,3.0865,3.0993,3.1,3.1008,3.112,0,0,3.1033,3.1036,0,0,0,0,0,0,0,0,3.0615,3.0631,3.0768,3.077,3.0773,3.0861,3.0845,3.0967,3.0875,3.0836,3.0867,3.0864,3.0954,3.0965,3.0995,3.1126,3.1131,3.1034,3.1039,3.1042,3.1044,0,0,0,0,0,0,0,3.0607,3.0626,3.0811,3.077,3.0773,3.0768,3.0781,3.0868,3.0911,3.0839,3.0838,3.0853,3.0955,3.0988,3.0998,3.1133,3.1033,3.1041,3.1046,3.1049,3.1357,3.136,0,0,0,0,0,0,3.0597,3.0619,3.0807,3.0814,3.0685,3.0775,3.079,3.0836,3.091,3.0918,3.0856,3.0852,3.0975,3.0989,3.1003,3.1135,3.1042,3.1049,3.1054,3.1353,3.1357,3.1361,0,0,0,0,0,0,3.0591,3.0613,3.0802,3.0717,3.074,3.0783,3.0835,3.084,3.0873,3.0922,3.093,3.0881,3.0974,3.0991,3.109,3.1139,3.1053,3.106,3.1349,3.1355,3.1359,3.1401,0,0,0,0,0,0,3.0584,3.0612,3.0655,3.0718,3.0745,3.0887,3.0838,3.0845,3.0887,3.0883,3.0948,3.0956,3.0972,3.1078,3.1098,3.1149,3.1067,3.1345,3.1352,3.1358,3.1396,3.1407,3.1417,0,0,0,0,0,3.0575,3.0663,3.0657,3.068,3.08,3.089,3.0906,3.0922,3.0891,3.0934,3.0965,3.0954,3.1131,3.1088,3.111,3.1164,3.1342,3.135,3.1357,3.1391,3.1405,3.1417,0,0,0,0,0,0,3.0607,3.0672,3.0666,3.0778,3.0828,3.0887,3.0943,3.0937,3.0998,3.0992,3.101,3.1025,3.1124,3.1154,3.1105,3.1274,3.1232,3.1244,3.125,3.1264,3.1274,3.1264,3.1073,0,0,0,0,0,3.0626,3.0694,3.0748,3.0841,3.0866,3.09,3.094,3.0948,3.1001,3.1023,3.1062,3.1114,3.118,3.1224,3.1289,3.14,3.1413,3.1448,3.1459,3.1467,3.1477,3.1534,3.155,3.1386,3.1386,3.1386,0,0,3.0668,3.0712,3.0754,3.0848,3.0888,3.0957,3.0918,3.0994,3.1044,3.1035,3.1128,3.1159,3.1218,3.1322,3.137,3.135,3.1525,3.1477,3.1483,3.1489,3.1544,3.1559,3.1573,3.1391,3.139,3.1389,0,0,3.0779,3.0821,3.09,3.0941,3.1002,3.1023,3.1042,3.1102,3.112,3.1215,3.1208,3.1268,3.1384,3.1425,3.1461,3.1584,3.1574,3.1604,3.1659,3.1715,3.1728,3.1739,3.1779,3.1794,3.1614,3.1615,3.1615,0,3.0823,3.0927,3.0943,3.1017,3.1057,3.1051,3.113,3.1169,3.1248,3.1275,3.1252,3.1394,3.1434,3.1546,3.1575,3.1606,3.1626,3.1596,3.1725,3.1736,3.1747,3.1786,3.1801,3.1617,3.1617,3.1617,3.1617,0,3.0976,3.1048,3.1105,3.118,3.1227,3.1304,3.133,3.1375,3.1378,3.1401,3.1496,3.1543,3.1615,3.1642,3.1647,3.1754,3.1739,3.1721,3.1679,3.1765,3.1802,3.1817,3.1622,3.1621,3.162,3.1619,0,0,3.1112,3.1191,3.1212,3.1244,3.1309,3.1364,3.144,3.1509,3.1546,3.16,3.1662,3.1759,3.174,3.1781,3.1791,3.184,3.1929,3.1814,3.1816,3.1831,3.2045,3.2056,3.2073,3.1924,3.1927,3.1929,3.2039,0,3.1226,3.1359,3.1374,3.1492,3.1557,3.155,3.1615,3.1661,3.1684,3.1742,3.1767,3.1834,3.1807,3.183,3.1879,3.1908,3.1971,3.19,3.1979,3.1982,3.1962,3.2093,3.2107,3.2208,3.2053,3.2056,3.2058,0,3.1378,3.1434,3.1558,3.1611,3.1638,3.1697,3.1759,3.1815,3.1866,3.1879,3.1923,3.1925,3.2001,3.1957,3.206,3.2011,3.2045,3.2063,3.2068,3.2074,3.2023,3.21,3.2241,3.2255,3.2081,3.2079,3.2077,0,3.146,3.1567,3.1654,3.1682,3.1746,3.1787,3.1815,3.1864,3.1903,3.1958,3.1983,3.2046,3.2081,3.2129,3.2147,3.2114,3.2248,3.2207,3.2259,3.2258,3.2286,3.2284,3.2431,3.2312,3.2312,3.2312,3.2311,0,3.1584,3.166,3.169,3.1744,3.1827,3.1843,3.1925,3.1951,3.1994,3.2051,3.205,3.2103,3.2125,3.2181,3.2196,3.2277,3.2294,3.2305,3.2307,3.2303,3.2302,3.2324,3.2316,3.2316,3.2315,3.2314,3.2313,0,3.1689,3.1713,3.1807,3.1859,3.1874,3.1933,3.1977,3.2027,3.2049,3.2121,3.2139,3.2172,3.2238,3.2261,3.2343,3.2352,3.2445,3.2444,3.2428,3.2427,3.2477,3.2471,3.2642,3.2664,3.2533,3.2534,3.2535,0,3.1766,3.1824,3.1881,3.1919,3.1948,3.201,3.2049,3.2066,3.2107,3.2167,3.221,3.2275,3.2328,3.2434,3.2465,3.2526,3.2523,3.2579,3.2533,3.2525,3.252,3.2515,3.2519,3.2587,3.2589,3.259,3.2591,0,3.1899,3.1907,3.1964,3.2024,3.207,3.2119,3.2165,3.2196,3.222,3.2265,3.2332,3.2373,3.2454,3.2518,3.2579,3.2608,3.2602,3.2605,3.262,3.2615,3.2602,3.2606,3.2448,3.2601,3.26,3.2599,3.2598,3.2598,3.199,3.2039,3.2086,3.2148,3.2185,3.2227,3.2276,3.2302,3.2358,3.2425,3.2431,3.2502,3.2549,3.263,3.2662,3.2716,3.2701,3.2723,3.2728,3.2733,3.2735,3.2595,3.2728,3.2728,3.2728,3.2727,3.2727,0,3.212,3.2149,3.2206,3.227,3.2318,3.2308,3.2359,3.2399,3.2461,3.2505,3.2556,3.2631,3.2692,3.2727,3.2788,3.2824,3.2823,3.2839,3.2836,3.2841,3.2747,3.2726,3.2839,3.2839,3.2839,3.2839,3.2839,3.2839,3.2193,3.2274,3.2287,3.2385,3.2414,3.2482,3.2511,3.255,3.2584,3.2667,3.2717,3.2739,3.2779,3.2841,3.2896,3.2905,3.2926,3.2943,3.295,3.286,3.2849,3.2838,3.2818,3.2948,3.2948,3.3039,3.304,3.3041]},{"header":{"parameterUnit":"m.s-1","parameterCategory":1,"la1":30.2991,"la2":30.254,"lo1":-89.0895,"lo2":-89.0444,"dy":0.0017,"dx":0.0017,"nx":28,"ny":28,"refTime":"2025-06-01T03:00:00:Z","depth":0,"parameterNumber":3,"parameterNumberName":"V-component_of_WINDS"},"data":[0,0,0,0,0,0,0,0,0,0,0,0,0,0,0,0,0,0,0,0,0,0,0,0,0,0,0,0,0,0,0,0,0,0,0,0,0,0,0,0,0,0,0,0,0,0,0,0,0,0,0,0,0,0,0,0,0,0,2.1936,2.1936,0,2.1977,2.1978,2.1978,2.1959,2.1958,2.1957,2.1956,2.1995,2.1997,2.1999,0,0,0,0,0,0,0,0,0,0,0,0,0,2.1834,2.1836,2.1936,2.1936,2.1937,2.1977,2.1978,2.1978,2.1959,2.1958,2.1956,2.1955,2.1994,2.1996,2.1999,0,0,0,0,0,0,0,0,0,0,0,0,0,2.1877,2.1837,2.1935,2.1932,2.1932,2.1977,2.1978,2.1978,2.1959,2.1958,2.1956,2.1955,2.1993,2.1996,2.1999,2.2049,0,0,2.2008,2.201,0,0,0,0,0,0,0,0,2.1875,2.1881,2.1932,2.1932,2.1933,2.1961,2.1956,2.2002,2.196,2.1949,2.1956,2.1954,2.1985,2.1988,2.1999,2.2051,2.2052,2.2009,2.201,2.2012,2.2013,0,0,0,0,0,0,0,2.1872,2.1879,2.1952,2.1933,2.1933,2.1927,2.1931,2.1965,2.1975,2.195,2.1948,2.1954,2.1984,2.1996,2.2,2.2053,2.2009,2.2011,2.2013,2.2014,2.2144,2.2145,0,0,0,0,0,0,2.187,2.1877,2.1951,2.1953,2.1899,2.193,2.1935,2.1954,2.1974,2.1976,2.1955,2.1953,2.1992,2.1997,2.2001,2.2059,2.2012,2.2015,2.2016,2.2142,2.2144,2.2146,0,0,0,0,0,0,2.1868,2.1877,2.1949,2.1915,2.1923,2.1933,2.1954,2.1955,2.1967,2.1979,2.198,2.1966,2.1991,2.1997,2.2037,2.206,2.2016,2.2019,2.214,2.2143,2.2145,2.2176,0,0,0,0,0,0,2.1865,2.1876,2.1896,2.1915,2.1925,2.1985,2.1956,2.1957,2.1973,2.197,2.1989,2.1991,2.199,2.2032,2.204,2.2064,2.2021,2.2138,2.2141,2.2144,2.2173,2.218,2.2185,0,0,0,0,0,2.1861,2.1903,2.1897,2.1906,2.1951,2.1987,2.1992,2.1992,2.1975,2.1994,2.2001,2.199,2.2057,2.2037,2.2045,2.207,2.2137,2.2141,2.2144,2.2171,2.2178,2.2185,0,0,0,0,0,0,2.1886,2.1906,2.19,2.1949,2.1967,2.1984,2.2008,2.2001,2.2023,2.2019,2.2017,2.2021,2.2062,2.207,2.2047,2.2118,2.2094,2.2099,2.2111,2.2119,2.2124,2.2121,2.2023,0,0,0,0,0,2.1898,2.1926,2.1941,2.1983,2.1992,2.1999,2.2014,2.2013,2.203,2.2037,2.2047,2.2063,2.2087,2.2103,2.2126,2.2174,2.2177,2.2195,2.2201,2.2206,2.221,2.2234,2.2242,2.2158,2.2158,2.2158,0,0,2.1921,2.1935,2.1954,2.1989,2.2002,2.203,2.2005,2.2036,2.2056,2.2041,2.2079,2.2087,2.2104,2.2148,2.2167,2.2156,2.2234,2.221,2.2214,2.2216,2.2239,2.2247,2.2254,2.2161,2.216,2.216,0,0,2.1978,2.1993,2.2029,2.2042,2.2063,2.2066,2.2075,2.2092,2.2097,2.2135,2.2124,2.2146,2.2189,2.2202,2.2213,2.2273,2.2262,2.228,2.2311,2.2334,2.234,2.2346,2.2366,2.2373,2.2285,2.2285,2.2285,0,2.2005,2.2048,2.2048,2.2079,2.2094,2.2082,2.2117,2.213,2.2156,2.2166,2.2152,2.2204,2.2215,2.226,2.2274,2.2285,2.2293,2.2278,2.234,2.2345,2.2351,2.2369,2.2377,2.2287,2.2286,2.2286,2.2286,0,2.2079,2.2109,2.2135,2.2161,2.2178,2.2212,2.2214,2.2232,2.2228,2.2232,2.227,2.2282,2.2307,2.2317,2.2314,2.2361,2.2353,2.234,2.2316,2.2361,2.2378,2.2385,2.2289,2.2289,2.2288,2.2288,0,0,2.2155,2.2179,2.2188,2.2199,2.2219,2.2241,2.2272,2.2297,2.2311,2.2329,2.2354,2.2389,2.2377,2.239,2.2387,2.2408,2.2452,2.2391,2.2392,2.2401,2.2503,2.2512,2.2521,2.2445,2.2446,2.2447,2.2501,0,2.2212,2.2269,2.2268,2.2319,2.2345,2.2333,2.2359,2.2374,2.2378,2.2399,2.2403,2.2428,2.241,2.2418,2.2437,2.2442,2.2472,2.2438,2.2467,2.2468,2.2462,2.253,2.2541,2.2591,2.2508,2.2509,2.251,0,2.2288,2.2308,2.2362,2.2377,2.2387,2.2412,2.2433,2.2454,2.2469,2.2471,2.2485,2.2478,2.2508,2.2483,2.2523,2.25,2.2511,2.2515,2.2517,2.2519,2.2491,2.2533,2.2607,2.2614,2.2521,2.252,2.2519,0,2.2336,2.2377,2.2414,2.2423,2.2442,2.2459,2.2467,2.248,2.2494,2.2512,2.2521,2.2542,2.2553,2.2569,2.2567,2.255,2.2607,2.2582,2.2608,2.2608,2.262,2.2619,2.2696,2.2629,2.2629,2.2628,2.2628,0,2.24,2.2433,2.2435,2.2458,2.2494,2.2492,2.2527,2.2533,2.2544,2.2567,2.2557,2.2578,2.2575,2.2595,2.2594,2.2626,2.2632,2.2632,2.2632,2.2633,2.2633,2.264,2.2636,2.263,2.263,2.263,2.2629,0,2.246,2.2463,2.2502,2.2516,2.252,2.2545,2.2556,2.2576,2.2579,2.2607,2.2614,2.2618,2.2641,2.2641,2.2668,2.2667,2.2706,2.2701,2.2701,2.27,2.2725,2.2722,2.2808,2.2818,2.2745,2.2746,2.2746,0,2.2501,2.2526,2.2542,2.2556,2.2565,2.2589,2.2603,2.2601,2.2615,2.2633,2.2651,2.2673,2.2691,2.2728,2.2733,2.2753,2.2748,2.2777,2.2751,2.2751,2.2747,2.2745,2.2747,2.2782,2.2782,2.2783,2.2784,0,2.2572,2.2572,2.2593,2.2614,2.2631,2.2648,2.2663,2.2675,2.2674,2.2691,2.2714,2.2728,2.2755,2.2777,2.2795,2.2802,2.2792,2.2792,2.2798,2.28,2.2798,2.2798,2.2714,2.279,2.2789,2.2789,2.2788,2.2788,2.2623,2.2644,2.2658,2.2681,2.2692,2.2706,2.2725,2.273,2.275,2.2772,2.2769,2.2795,2.2807,2.2831,2.2839,2.2858,2.2848,2.2858,2.286,2.2863,2.2865,2.2795,2.2862,2.2861,2.2861,2.2861,2.2861,0,2.2692,2.27,2.2722,2.2743,2.2761,2.275,2.2766,2.2781,2.2804,2.2817,2.2834,2.286,2.2881,2.2886,2.2905,2.292,2.2916,2.2925,2.2923,2.2925,2.2874,2.2865,2.2928,2.2928,2.2928,2.2928,2.2928,2.2928,2.2731,2.2765,2.2766,2.2804,2.2812,2.2838,2.2847,2.2859,2.2868,2.2898,2.2916,2.2919,2.2928,2.2948,2.2965,2.2966,2.2973,2.2984,2.2983,2.2935,2.2928,2.2922,2.2914,2.2986,2.2986,2.3032,2.3033,2.3033]}]]